Wilmington, OH

3:46 PM EDT on April 29, 2017 (GMT -0400)
Airborne

Weather History for KILN - August, 2013

Change the Weather History Date:

Thursday, August 8, 2013

  Actual Average (KFFO) Record (KFFO)
Temperature  
Mean Temperature 76 °F -  
Max Temperature 84 °F 81 °F 99 °F (2007)
Min Temperature 69 °F 61 °F 55 °F (2002)
Cooling Degree Days 12    
Growing Degree Days 26 (Base 50)    
Moisture  
Dew Point 71 °F    
Average Humidity 91    
Maximum Humidity 100    
Minimum Humidity 66    
Precipitation  
Precipitation 0.11 in - - ()
Sea Level Pressure  
Sea Level Pressure 29.94 in    
Wind  
Wind Speed 5 mph (SSW)    
Max Wind Speed 16 mph    
Max Gust Speed 21 mph    
Visibility 4 miles    
Events Fog , Rain , Thunderstorm    
Averages and records for this station are not official NWS values.
T = Trace of Precipitation, MM = Missing Value Source: NWS Daily Summary

Daily Weather History Graph

Daily Weather History Graph

Search for Another Location

Airport or City:

Trip Planner

Search our weather history database for the weather conditions in past years. The results will help you decide how hot, cold, wet, or windy it might be!

Date:

Astronomy

Aug. 08, 2013 Rise Set
Actual Time 6:41 AM EDT 8:39 PM EDT
Civil Twilight 6:12 AM EDT 9:08 PM EDT
Nautical Twilight 5:36 AM EDT 9:44 PM EDT
Astronomical Twilight 4:57 AM EDT 10:22 PM EDT
Moon 8:26 AM EDT (8/8) 9:18 PM EDT (8/8)
Length of Visible Light 14h 56m
Length of Day
13h 57m
Waxing Crescent, 3% of the Moon is Illuminated
Aug 8
Waxing Crescent
Aug 14
First Quarter
Aug 20
Full
Aug 28
Last Quarter
Sep 5
New

Hourly Weather History & Observations

Time (EDT) Temp. Heat Index Dew Point Humidity Pressure Visibility Wind Dir Wind Speed Gust Speed Precip Events Conditions
12:54 AM 72.0 °F - 71.1 °F 97% 29.92 in 6.0 mi South 4.6 mph - N/A   Clear
1:54 AM 71.1 °F - 70.0 °F 96% 29.92 in 5.0 mi South 3.5 mph - N/A   Clear
2:54 AM 71.1 °F - 70.0 °F 96% 29.92 in 4.0 mi South 3.5 mph - N/A Thunderstorm Mostly Cloudy
3:28 AM 71.6 °F - 69.8 °F 94% 29.95 in 4.0 mi SSW 5.8 mph - N/A   Mostly Cloudy
3:54 AM 71.1 °F - 70.0 °F 96% 29.91 in 3.0 mi SW 3.5 mph - N/A   Partly Cloudy
4:08 AM 71.6 °F - 69.8 °F 94% 29.95 in 1.8 mi SSW 3.5 mph - N/A   Scattered Clouds
4:15 AM 71.6 °F - 69.8 °F 94% 29.95 in 2.0 mi SW 3.5 mph - N/A   Scattered Clouds
4:19 AM 71.6 °F - 69.8 °F 94% 29.95 in 3.0 mi Calm Calm - N/A   Mostly Cloudy
4:28 AM 71.6 °F - 69.8 °F 94% 29.95 in 5.0 mi Calm Calm - N/A   Mostly Cloudy
4:54 AM 71.1 °F - 70.0 °F 96% 29.91 in 3.0 mi SW 3.5 mph - N/A   Mostly Cloudy
5:04 AM 69.8 °F - 69.8 °F 100% 29.94 in 1.8 mi SSW 3.5 mph - N/A   Partly Cloudy
5:30 AM 69.8 °F - 69.8 °F 100% 29.94 in 0.8 mi South 5.8 mph - N/A   Scattered Clouds
5:35 AM 69.8 °F - 69.8 °F 100% 29.94 in 1.0 mi SSW 3.5 mph - N/A   Mostly Cloudy
5:54 AM 69.1 °F - 69.1 °F 100% 29.91 in 1.2 mi SSW 4.6 mph - N/A   Overcast
6:17 AM 69.8 °F - 69.8 °F 100% 29.95 in 0.5 mi SW 5.8 mph - N/A Fog Fog
6:32 AM 69.8 °F - 69.8 °F 100% 29.95 in 0.2 mi SW 4.6 mph - N/A Fog Fog
6:54 AM 70.0 °F - 70.0 °F 100% 29.91 in 0.2 mi South 3.5 mph - N/A Fog Fog
7:11 AM 69.8 °F - 69.8 °F 100% 29.94 in 0.2 mi South 3.5 mph - N/A Fog Fog
7:54 AM 70.0 °F - 70.0 °F 100% 29.92 in 0.2 mi SSW 5.8 mph - N/A Fog Fog
8:39 AM 71.6 °F - 71.6 °F 100% 29.97 in 0.2 mi SSW 6.9 mph - N/A Fog Fog
8:54 AM 71.1 °F - 71.1 °F 100% 29.94 in 0.2 mi SSW 8.1 mph - N/A Fog Fog
9:01 AM 71.6 °F - 71.6 °F 100% 29.96 in 0.2 mi SSW 8.1 mph - N/A Fog Fog
9:18 AM 71.6 °F - 71.6 °F 100% 29.96 in 0.8 mi SSW 5.8 mph - N/A   Mist
9:26 AM 73.4 °F - 71.6 °F 94% 29.97 in 1.8 mi SSW 4.6 mph - N/A   Overcast
9:36 AM 73.4 °F - 71.6 °F 94% 29.97 in 2.5 mi SSW 5.8 mph - N/A   Overcast
9:54 AM 73.9 °F - 72.0 °F 93% 29.94 in 2.0 mi Variable 3.5 mph - N/A   Overcast
10:12 AM 75.2 °F - 71.6 °F 89% 29.97 in 3.0 mi SSW 3.5 mph - N/A   Overcast
10:41 AM 78.8 °F - 73.4 °F 83% 29.98 in 4.0 mi SW 5.8 mph - N/A   Haze
10:54 AM 80.1 °F 84.2 °F 73.0 °F 79% 29.96 in 5.0 mi SW 5.8 mph - N/A   Haze
11:02 AM 78.8 °F - 73.4 °F 83% 29.99 in 6.0 mi SW 5.8 mph - N/A   Haze
11:41 AM 78.8 °F - 73.4 °F 83% 29.99 in 6.0 mi South 11.5 mph - N/A   Haze
11:54 AM 80.1 °F 83.8 °F 72.0 °F 76% 29.95 in 6.0 mi SSW 10.4 mph - N/A   Haze
12:54 PM 82.9 °F 88.0 °F 72.0 °F 69% 29.93 in 8.0 mi South 6.9 mph - N/A   Scattered Clouds
1:41 PM 84.2 °F 89.6 °F 71.6 °F 66% 29.96 in 8.0 mi SW 8.1 mph - N/A   Mostly Cloudy
1:54 PM 84.0 °F 89.6 °F 72.0 °F 67% 29.91 in 9.0 mi South 3.5 mph - N/A   Mostly Cloudy
2:54 PM 80.1 °F 83.6 °F 71.1 °F 74% 29.91 in 9.0 mi SSW 12.7 mph - N/A Thunderstorm Mostly Cloudy
3:54 PM 75.0 °F - 72.0 °F 90% 29.91 in 6.0 mi WSW 6.9 mph - 0.02 in Rain , Thunderstorm Light Rain
4:01 PM 75.2 °F - 73.4 °F 94% 29.94 in 7.0 mi SW 6.9 mph - 0.00 in   Mostly Cloudy
4:54 PM 80.1 °F 83.8 °F 72.0 °F 76% 29.88 in 10.0 mi SW 6.9 mph - 0.00 in   Clear
5:54 PM 82.0 °F 86.7 °F 72.0 °F 71% 29.90 in 10.0 mi WSW 8.1 mph - N/A   Partly Cloudy
6:36 PM 80.6 °F 84.6 °F 71.6 °F 74% 29.94 in 10.0 mi West 3.5 mph - N/A Thunderstorm Mostly Cloudy
6:54 PM 79.0 °F - 72.0 °F 79% 29.91 in 9.0 mi NW 4.6 mph - 0.00 in Rain , Thunderstorm Light Rain
7:18 PM 75.2 °F - 73.4 °F 94% 29.94 in 4.0 mi NNW 15.0 mph 20.7 mph 0.01 in Rain Rain
7:28 PM 73.4 °F - 71.6 °F 94% 29.94 in 2.5 mi North 16.1 mph - 0.04 in Rain , Thunderstorm Rain
7:37 PM 73.4 °F - 71.6 °F 94% 29.95 in 4.0 mi NNW 12.7 mph - 0.05 in Rain , Thunderstorm Light Rain
7:54 PM 73.0 °F - 71.1 °F 93% 29.91 in 2.5 mi Calm Calm - 0.08 in Rain , Thunderstorm Light Thunderstorms and Rain
7:56 PM 73.4 °F - 71.6 °F 94% 29.94 in 3.0 mi Calm Calm - 0.00 in Rain , Thunderstorm Light Thunderstorms and Rain
8:33 PM 71.6 °F - 71.6 °F 100% 29.92 in 9.0 mi NNE 4.6 mph - 0.00 in   Partly Cloudy
8:54 PM 72.0 °F - 71.1 °F 97% 29.91 in 6.0 mi ESE 3.5 mph - 0.00 in   Partly Cloudy
9:54 PM 71.1 °F - 70.0 °F 96% 29.92 in 7.0 mi Calm Calm - N/A   Partly Cloudy
10:54 PM 71.1 °F - 70.0 °F 96% 29.92 in 7.0 mi SSW 3.5 mph - N/A   Partly Cloudy
11:54 PM 72.0 °F - 71.1 °F 97% 29.91 in 7.0 mi Calm Calm - 0.01 in Rain Light Rain